Location: Brachbach
(49.1847°N, 9.7240°E)
Time: 05:26:26
(UTC+00:00)

PCSat - Pass Details

Date: 19 March 2026
Orbit: 780 x 790 km, 67.1° (Epoch: 13 April)

Event Time Altitude Azimuth Distance (km) Brightness Sun altitude
Exits shadow 00:03:47 15° 341° (NNW) 2,020 12.1 -40.9°
Drops below altitude 10° 00:06:47 10° 15° (NNE) 2,365 12.7 -40.8°
Sets 00:10:18 0° 38° (NE) 3,296 13.5 -40.6°
